DAL3162 KMYR-KATL

Flight info

Callsign DAL3162
Flight time N/A
Altitude 34000
Route CAE SKWKR JJEDI4
Aircraft A320/M-SDE3FGHIRWY/LB1

Departure

Time 2026-05-05 07:29
Airport Myrtle Beach International Airport (KMYR)

Arrival

Time N/A
Airport Hartsfield Jackson Atlanta International Airport (KATL)
Time Latitude Longitude Altitude Speed Heading
2026-05-05 07:16 33.68073 -78.92420 32 ft 0 kts 169°
2026-05-05 07:19 33.68067 -78.92418 32 ft 2 kts 169°
2026-05-05 07:19 33.68066 -78.92418 32 ft 0 kts 169°
2026-05-05 07:20 33.68079 -78.92421 32 ft 2 kts 169°
2026-05-05 07:20 33.68096 -78.92425 31 ft 2 kts 169°
2026-05-05 07:20 33.68113 -78.92429 29 ft 2 kts 170°
2026-05-05 07:21 33.68130 -78.92429 31 ft 3 kts 206°
2026-05-05 07:21 33.68145 -78.92417 32 ft 3 kts 242°
2026-05-05 07:21 33.68147 -78.92411 32 ft 0 kts 253°
2026-05-05 07:24 33.68139 -78.92443 32 ft 11 kts 253°
2026-05-05 07:24 33.68103 -78.92564 31 ft 17 kts 249°
2026-05-05 07:24 33.68024 -78.92640 32 ft 17 kts 172°
2026-05-05 07:24 33.67904 -78.92609 32 ft 18 kts 167°
2026-05-05 07:25 33.67776 -78.92573 32 ft 20 kts 167°
2026-05-05 07:25 33.67637 -78.92539 32 ft 21 kts 173°
2026-05-05 07:25 33.67486 -78.92516 32 ft 22 kts 172°
2026-05-05 07:25 33.67331 -78.92470 32 ft 24 kts 166°
2026-05-05 07:26 33.67165 -78.92428 32 ft 25 kts 168°
2026-05-05 07:26 33.67011 -78.92349 32 ft 24 kts 162°
2026-05-05 07:26 33.66909 -78.92323 32 ft 13 kts 168°
2026-05-05 07:26 33.66824 -78.92303 32 ft 12 kts 169°
2026-05-05 07:27 33.66779 -78.92294 32 ft 0 kts 177°
2026-05-05 07:27 33.66772 -78.92295 32 ft 6 kts 186°
2026-05-05 07:27 33.66725 -78.92418 32 ft 20 kts 260°
2026-05-05 07:28 33.66772 -78.92532 34 ft 17 kts 348°
2026-05-05 07:28 33.66951 -78.92575 34 ft 50 kts 348°
2026-05-05 07:28 33.67527 -78.92720 32 ft 116 kts 348°
2026-05-05 07:28 33.68483 -78.92958 57 ft 162 kts 348°
2026-05-05 07:29 33.69555 -78.93233 695 ft 158 kts 346°
2026-05-05 07:29 33.70640 -78.93559 1235 ft 163 kts 336°
2026-05-05 07:29 33.71587 -78.94266 1727 ft 160 kts 298°
2026-05-05 07:29 33.71842 -78.95593 1917 ft 175 kts 262°
2026-05-05 07:30 33.71688 -78.97145 2127 ft 202 kts 258°
2026-05-05 07:30 33.71622 -79.00270 2707 ft 247 kts 274°
2026-05-05 07:30 33.71858 -79.02360 3425 ft 257 kts 277°
2026-05-05 07:31 33.72127 -79.04505 4241 ft 263 kts 277°
2026-05-05 07:31 33.72382 -79.06705 5040 ft 269 kts 276°
2026-05-05 07:31 33.72612 -79.08957 5838 ft 275 kts 274°
2026-05-05 07:31 33.72821 -79.11263 6644 ft 280 kts 273°
2026-05-05 07:32 33.73017 -79.13605 7432 ft 283 kts 273°
2026-05-05 07:32 33.73202 -79.15976 8253 ft 286 kts 273°
2026-05-05 07:32 33.73381 -79.18365 9081 ft 289 kts 273°
2026-05-05 07:32 33.73556 -79.20787 9899 ft 292 kts 273°
2026-05-05 07:33 33.73734 -79.23259 10418 ft 306 kts 273°
2026-05-05 07:33 33.73921 -79.25907 10648 ft 329 kts 273°
2026-05-05 07:33 33.74121 -79.28698 11145 ft 339 kts 273°
2026-05-05 07:33 33.74328 -79.31539 11840 ft 343 kts 274°
2026-05-05 07:34 33.74541 -79.34411 12587 ft 346 kts 274°
2026-05-05 07:34 33.74754 -79.37303 13330 ft 349 kts 274°
2026-05-05 07:34 33.74964 -79.40216 14039 ft 352 kts 274°
2026-05-05 07:34 33.75175 -79.43155 14701 ft 353 kts 274°
2026-05-05 07:35 33.75386 -79.46098 15383 ft 354 kts 274°
2026-05-05 07:35 33.75596 -79.49055 16066 ft 355 kts 274°
2026-05-05 07:35 33.75803 -79.51978 16738 ft 356 kts 274°
2026-05-05 07:35 33.76013 -79.54946 17406 ft 357 kts 274°
2026-05-05 07:36 33.76226 -79.57926 18073 ft 359 kts 274°
2026-05-05 07:36 33.76439 -79.60919 18687 ft 360 kts 274°
2026-05-05 07:36 33.76652 -79.63926 19231 ft 362 kts 274°
2026-05-05 07:36 33.76862 -79.66953 19772 ft 365 kts 274°
2026-05-05 07:37 33.77071 -79.70006 20301 ft 368 kts 274°
2026-05-05 07:37 33.77282 -79.73088 20834 ft 370 kts 274°
2026-05-05 07:37 33.77493 -79.76182 21363 ft 373 kts 274°
2026-05-05 07:37 33.77708 -79.79304 21885 ft 376 kts 274°
2026-05-05 07:38 33.77923 -79.82448 22405 ft 379 kts 274°
2026-05-05 07:38 33.78139 -79.85612 22906 ft 381 kts 274°
2026-05-05 07:38 33.78357 -79.88798 23399 ft 384 kts 274°
2026-05-05 07:38 33.78578 -79.92016 23842 ft 387 kts 274°
2026-05-05 07:39 33.78798 -79.95248 24246 ft 389 kts 274°
2026-05-05 07:39 33.79017 -79.98504 24653 ft 391 kts 274°
2026-05-05 07:39 33.79232 -80.01725 25040 ft 393 kts 274°
2026-05-05 07:39 33.79451 -80.05003 25426 ft 395 kts 274°
2026-05-05 07:40 33.79671 -80.08304 25805 ft 396 kts 274°
2026-05-05 07:40 33.79890 -80.11613 26176 ft 398 kts 274°
2026-05-05 07:40 33.80106 -80.14934 26542 ft 400 kts 274°
2026-05-05 07:40 33.80322 -80.18274 26908 ft 401 kts 274°
2026-05-05 07:41 33.80541 -80.21625 27263 ft 403 kts 274°
2026-05-05 07:41 33.80763 -80.25000 27616 ft 405 kts 274°
2026-05-05 07:41 33.80983 -80.28375 27961 ft 406 kts 274°
2026-05-05 07:41 33.81202 -80.31774 28303 ft 408 kts 274°
2026-05-05 07:42 33.81419 -80.35184 28637 ft 410 kts 275°
2026-05-05 07:42 33.81639 -80.38608 28947 ft 411 kts 275°
2026-05-05 07:42 33.81862 -80.42051 29259 ft 413 kts 275°
2026-05-05 07:42 33.82083 -80.45499 29558 ft 415 kts 275°
2026-05-05 07:43 33.82301 -80.48964 29852 ft 416 kts 275°
2026-05-05 07:43 33.82521 -80.52445 30137 ft 418 kts 275°
2026-05-05 07:43 33.82740 -80.55932 30373 ft 419 kts 275°
2026-05-05 07:43 33.82960 -80.59445 30601 ft 421 kts 275°
2026-05-05 07:44 33.83178 -80.62958 30812 ft 422 kts 275°
2026-05-05 07:44 33.83392 -80.66430 31017 ft 423 kts 275°
2026-05-05 07:44 33.83610 -80.69958 31313 ft 422 kts 275°
2026-05-05 07:44 33.83826 -80.73478 31622 ft 421 kts 275°
2026-05-05 07:45 33.84040 -80.76987 31929 ft 420 kts 275°
2026-05-05 07:45 33.84254 -80.80494 32234 ft 419 kts 275°
2026-05-05 07:45 33.84466 -80.83989 32538 ft 418 kts 275°
2026-05-05 07:45 33.84674 -80.87475 32837 ft 417 kts 275°
2026-05-05 07:46 33.84879 -80.90959 33144 ft 416 kts 275°
2026-05-05 07:46 33.85081 -80.94429 33474 ft 415 kts 275°
2026-05-05 07:46 33.85281 -80.97891 33775 ft 414 kts 275°
2026-05-05 07:46 33.85464 -81.01358 34029 ft 415 kts 273°
2026-05-05 07:47 33.84815 -81.08173 34074 ft 411 kts 257°
2026-05-05 07:47 33.82972 -81.14634 34071 ft 411 kts 254°
2026-05-05 07:48 33.81024 -81.21084 34075 ft 410 kts 253°
2026-05-05 07:48 33.79061 -81.27522 34071 ft 410 kts 254°
2026-05-05 07:49 33.77106 -81.33951 34073 ft 409 kts 254°
2026-05-05 07:49 33.75156 -81.40384 34083 ft 409 kts 254°
2026-05-05 07:50 33.73200 -81.46796 34086 ft 408 kts 254°
2026-05-05 07:50 33.71253 -81.53197 34095 ft 408 kts 255°
2026-05-05 07:51 33.69306 -81.59587 34102 ft 407 kts 255°
2026-05-05 07:51 33.67355 -81.65957 34104 ft 406 kts 255°
2026-05-05 07:52 33.65406 -81.72311 34104 ft 405 kts 255°
2026-05-05 07:52 33.63451 -81.78652 34105 ft 404 kts 255°
2026-05-05 07:53 33.61505 -81.84973 34101 ft 403 kts 255°
2026-05-05 07:53 33.59583 -81.91282 34087 ft 402 kts 256°
2026-05-05 07:54 33.57722 -81.97584 34089 ft 400 kts 257°
2026-05-05 07:54 33.55867 -82.03872 34089 ft 399 kts 257°
2026-05-05 07:55 33.54021 -82.10141 34089 ft 398 kts 257°
2026-05-05 07:55 33.52178 -82.16343 34086 ft 397 kts 257°
2026-05-05 07:56 33.50314 -82.22573 34085 ft 397 kts 257°
2026-05-05 07:56 33.48449 -82.28782 34100 ft 396 kts 257°
2026-05-05 07:57 33.46589 -82.34989 34119 ft 395 kts 257°
2026-05-05 07:57 33.44731 -82.41181 34113 ft 395 kts 257°
2026-05-05 07:58 33.43796 -82.44278 33397 ft 398 kts 257°
2026-05-05 07:58 33.42858 -82.47373 32879 ft 393 kts 256°
2026-05-05 07:58 33.41933 -82.50429 32392 ft 388 kts 256°
2026-05-05 07:58 33.41022 -82.53445 31901 ft 383 kts 256°
2026-05-05 07:59 33.40120 -82.56426 31423 ft 380 kts 255°
2026-05-05 07:59 33.39224 -82.59386 30941 ft 376 kts 255°
2026-05-05 07:59 33.38337 -82.62319 30475 ft 373 kts 255°
2026-05-05 07:59 33.37455 -82.65229 29979 ft 371 kts 254°
2026-05-05 08:00 33.36583 -82.68114 29497 ft 367 kts 254°
2026-05-05 08:00 33.35732 -82.70933 29054 ft 362 kts 254°
2026-05-05 08:00 33.34880 -82.73749 28603 ft 359 kts 254°
2026-05-05 08:00 33.34030 -82.76536 28175 ft 355 kts 254°
2026-05-05 08:01 33.33189 -82.79293 27742 ft 351 kts 254°
2026-05-05 08:01 33.32354 -82.82029 27323 ft 348 kts 254°
2026-05-05 08:01 33.31530 -82.84731 26911 ft 344 kts 254°
2026-05-05 08:01 33.30754 -82.87417 26513 ft 339 kts 259°
2026-05-05 08:02 33.30336 -82.90160 26059 ft 334 kts 265°
2026-05-05 08:02 33.30018 -82.92904 25621 ft 332 kts 265°
2026-05-05 08:02 33.29695 -82.95637 25176 ft 331 kts 264°
2026-05-05 08:02 33.29372 -82.98351 24735 ft 329 kts 264°
2026-05-05 08:03 33.29047 -83.01056 24293 ft 328 kts 264°
2026-05-05 08:03 33.28721 -83.03750 23839 ft 327 kts 264°
2026-05-05 08:03 33.28400 -83.06406 23357 ft 327 kts 264°
2026-05-05 08:03 33.28076 -83.09088 22881 ft 325 kts 264°
2026-05-05 08:04 33.27754 -83.11757 22419 ft 324 kts 263°
2026-05-05 08:04 33.27434 -83.14414 21971 ft 323 kts 263°
2026-05-05 08:04 33.27114 -83.17062 21515 ft 322 kts 263°
2026-05-05 08:04 33.26795 -83.19706 21052 ft 321 kts 263°
2026-05-05 08:05 33.26478 -83.22349 20593 ft 321 kts 263°
2026-05-05 08:05 33.26159 -83.24993 20133 ft 322 kts 262°
2026-05-05 08:05 33.25837 -83.27645 19632 ft 323 kts 262°
2026-05-05 08:05 33.25512 -83.30309 19162 ft 325 kts 262°
2026-05-05 08:06 33.25186 -83.32985 18701 ft 326 kts 262°
2026-05-05 08:06 33.24855 -83.35682 18216 ft 327 kts 261°
2026-05-05 08:06 33.24625 -83.37531 17876 ft 327 kts 261°
2026-05-05 08:06 33.24287 -83.40261 17401 ft 327 kts 261°
2026-05-05 08:07 33.23958 -83.42940 16958 ft 326 kts 261°
2026-05-05 08:07 33.23628 -83.45623 16508 ft 325 kts 261°
2026-05-05 08:07 33.23300 -83.48292 16066 ft 325 kts 261°
2026-05-05 08:07 33.22968 -83.50964 15624 ft 325 kts 261°
2026-05-05 08:08 33.22634 -83.53636 15190 ft 325 kts 261°
2026-05-05 08:08 33.22299 -83.56300 14752 ft 325 kts 261°
2026-05-05 08:08 33.21964 -83.58969 14318 ft 325 kts 260°
2026-05-05 08:08 33.21629 -83.61638 13877 ft 325 kts 260°
2026-05-05 08:09 33.21294 -83.64312 13403 ft 325 kts 260°
2026-05-05 08:09 33.20958 -83.66973 12951 ft 323 kts 260°
2026-05-05 08:09 33.20622 -83.69616 12521 ft 322 kts 260°
2026-05-05 08:09 33.20293 -83.72226 12314 ft 313 kts 260°
2026-05-05 08:10 33.19975 -83.74749 12188 ft 302 kts 260°
2026-05-05 08:10 33.19667 -83.77202 11955 ft 296 kts 260°
2026-05-05 08:10 33.19468 -83.79657 11512 ft 298 kts 271°
2026-05-05 08:10 33.19835 -83.82068 11203 ft 296 kts 288°
2026-05-05 08:11 33.20796 -83.84241 10828 ft 298 kts 306°
2026-05-05 08:11 33.22210 -83.86046 10456 ft 298 kts 314°
2026-05-05 08:11 33.23678 -83.87787 10097 ft 297 kts 313°
2026-05-05 08:11 33.25134 -83.89515 9633 ft 293 kts 313°
2026-05-05 08:12 33.26577 -83.91230 8949 ft 291 kts 313°
2026-05-05 08:12 33.28001 -83.92926 8414 ft 287 kts 313°
2026-05-05 08:12 33.29413 -83.94612 7992 ft 287 kts 313°
2026-05-05 08:12 33.30809 -83.96278 7849 ft 281 kts 313°
2026-05-05 08:13 33.32193 -83.97935 7753 ft 282 kts 313°
2026-05-05 08:13 33.33579 -83.99598 7638 ft 282 kts 313°
2026-05-05 08:13 33.35000 -84.01211 7518 ft 282 kts 320°
2026-05-05 08:13 33.36706 -84.02379 7398 ft 285 kts 337°
2026-05-05 08:14 33.38638 -84.02920 7278 ft 287 kts 354°
2026-05-05 08:14 33.40642 -84.02974 7149 ft 288 kts 358°
2026-05-05 08:14 33.42638 -84.03008 7026 ft 287 kts 358°
2026-05-05 08:14 33.44610 -84.03044 6884 ft 287 kts 357°
2026-05-05 08:15 33.46625 -84.03057 6755 ft 286 kts
2026-05-05 08:15 33.48586 -84.02927 6624 ft 286 kts
2026-05-05 08:15 33.50565 -84.02727 6495 ft 285 kts
2026-05-05 08:15 33.52539 -84.02501 6358 ft 285 kts
2026-05-05 08:16 33.54506 -84.02270 6228 ft 284 kts
2026-05-05 08:16 33.56472 -84.02043 6093 ft 284 kts
2026-05-05 08:16 33.58440 -84.01823 5987 ft 282 kts
2026-05-05 08:16 33.60396 -84.01622 6000 ft 282 kts 360°
2026-05-05 08:17 33.62297 -84.02019 6004 ft 277 kts 333°
2026-05-05 08:17 33.63375 -84.02803 6007 ft 273 kts 316°
2026-05-05 08:17 33.64517 -84.04579 6004 ft 268 kts 291°
2026-05-05 08:17 33.64922 -84.06728 6007 ft 264 kts 269°
2026-05-05 08:18 33.64927 -84.08936 6004 ft 265 kts 268°
2026-05-05 08:18 33.64919 -84.11149 5769 ft 265 kts 268°
2026-05-05 08:18 33.64920 -84.13348 5443 ft 262 kts 269°
2026-05-05 08:18 33.64925 -84.15532 5107 ft 260 kts 268°
2026-05-05 08:19 33.64930 -84.17688 4773 ft 256 kts 268°
2026-05-05 08:19 33.64935 -84.19808 4425 ft 252 kts 268°
2026-05-05 08:19 33.64938 -84.21898 4091 ft 248 kts 268°
2026-05-05 08:19 33.64941 -84.23922 3772 ft 244 kts 268°
2026-05-05 08:20 33.64944 -84.25943 3458 ft 240 kts 267°
2026-05-05 08:20 33.64946 -84.27931 3144 ft 237 kts 267°
2026-05-05 08:20 33.64948 -84.29897 2833 ft 233 kts 267°
2026-05-05 08:20 33.64950 -84.31828 2532 ft 227 kts 266°
2026-05-05 08:21 33.64953 -84.33668 2242 ft 214 kts 266°
2026-05-05 08:21 33.64957 -84.35404 1954 ft 202 kts 266°
2026-05-05 08:21 33.64961 -84.37043 1665 ft 195 kts 268°
2026-05-05 08:21 33.64956 -84.38645 1472 ft 183 kts 268°
2026-05-05 08:22 33.64953 -84.40094 1201 ft 167 kts 268°
2026-05-05 08:22 33.64947 -84.41415 1034 ft 149 kts 269°
2026-05-05 08:22 33.64949 -84.42515 1010 ft 112 kts 270°
2026-05-05 08:22 33.64952 -84.43245 1009 ft 66 kts 271°